Terug naar catalogus

JCSAT 6

ActiefCommunicatieGEO
NORAD 25630·PAYLOAD·🇯🇵 Japan

Gelanceerd Feb 16, 1999 vanaf Cape Canaveral Space Force Station

Loading…

TLE

VersSource: Space-Track

Epoch: Sep 14, 2026, 08:25 UTC

1 25630U 99006A   26257.35081836 -.00000183  00000-0  00000-0 0  9999
2 25630   9.8878  55.0147 0021783  53.6063 318.2894  0.98811563 17097

Volg JCSAT 6 in realtime met AllMySat

Download on the App Store